Regional Weather Roundup
Issued by NWS Burlington, VT

Home | Current Version | Previous Version | Text Only | Print | Product List | Glossary On
Versions: 1 2 3 4 5 6 7 8 9 10 11 12 13 14 15 16 17 18 19 20 21 22 23 24 25 26 27 28 29 30 31 32 33 34 35 36 37 38 39 40 41 42 43 44 45 46 47 48 49 50
000
ASUS41 KBTV 301430
RWRBTV
VERMONT REGIONAL WEATHER ROUNDUP
NATIONAL WEATHER SERVICE BURLINGTON VT
1000 AM EDT SAT AUG 30 2014

NOTE: "FAIR" INDICATES FEW OR NO CLOUDS BELOW 12,000 FEET WITH NO
SIGNIFICANT WEATHER AND/OR OBSTRUCTIONS TO VISIBILITY.

* THESE REPORTS ARE NOT UNDER NWS QUALITY CONTROL AND/OR DO NOT
  REPORT WEATHER SUCH AS PRECIPITATION AND FOG.

VTZ001>019-301500-
_____VERMONT_____


CITY           SKY/WX    TMP DP  RH WIND       PRES   REMARKS
BURLINGTON     MOSUNNY   69  55  60 S17G29    30.17S
MONTPELIER     MOSUNNY   63  54  72 S9        30.25S
MORRISVILLE    MOSUNNY   69  54  58 SW10G18   30.20F
ST. JOHNSBURY*   N/A     64  55  72 MISG      30.20F
MIDDLEBURY*    FAIR      69  55  60 S12       30.21S
RUTLAND*       MOSUNNY   66  54  63 S10       30.22F
SPRINGFIELD    SUNNY     65  56  72 S6        30.25F
HIGHGATE*      FAIR      70  57  63 S9G17     30.14F
NEWPORT*       FAIR      67  56  68 S12G17    30.19F
BENNINGTON     SUNNY     68  55  63 S9        30.25S
SUTTON*          N/A     64 N/A N/A MISG        N/A
GALLUP MILLS*    N/A      0 N/A N/A MISG        N/A
UNION VILLAGE*   N/A     68 N/A N/A MISG        N/A
MT. MANSFIELD*   N/A     54 N/A N/A W14G26      N/A

_____LAKE CHAMPLAIN_____


CITY           SKY/WX    TMP DP  RH WIND       PRES   REMARKS
BURTON ISLAND*   N/A     66  59  77 S20         N/A
COLCHESTER RF*   N/A     64  57  77 S31         N/A
DIAMOND ISL*     N/A     64  57  77 S23         N/A

$$

NYZ007-026>031-035-052-083-301500-
_____NORTHERN NEW YORK_____


CITY           SKY/WX    TMP DP  RH WIND       PRES   REMARKS
PLATTSBURGH    MOSUNNY   68  59  73 SE10      30.14F
SARANAC LAKE   SUNNY     66  53  63 S17G24    30.16S
MASSENA        PTSUNNY   71  57  61 SW16G23   30.10S
OGDENSBURG*    SUNNY     72  57  60 SW9G16    30.09F
POTSDAM*       SUNNY     72  61  68 SW9       30.11R
PARISHVILLE*     N/A     68 N/A N/A S15         N/A
WATERTOWN      SUNNY     72  55  55 S13G20    30.10S
FT DRUM        SUNNY     68  55  62 S10       30.12R
ALBANY         MOSUNNY   69  56  62 S14G20    30.24S
GLENS FALLS    SUNNY     67  57  70 S8        30.22F

$$
NHZ002-005-011-301500-
_____NEW HAMPSHIRE_____


CITY           SKY/WX    TMP DP  RH WIND       PRES   REMARKS
LEBANON        SUNNY     68  54  60 S10       30.23F
KEENE          MOSUNNY   64  52  63 S10       30.28F
MT WASHINGTON  FOG       45  45 100 SW24G38     N/A  VSB 0
PLYMOUTH       FAIR      66  60  82 NE3       30.24F
WHITEFIELD     SUNNY     70  55  59 VRB6      30.22F

$$

_____REGIONAL QUEBEC LOCATIONS_____


CITY           SKY/WX    TMP DP  RH WIND       PRES   REMARKS
MONTREAL       PTSUNNY   72  57  60 S13       30.10F
QUEBEC CITY    PTSUNNY   64  55  72 W9        30.10F
SHERBROOKE     SUNNY     68  55  64 SW13G20   30.16F

_____REGIONAL ONTARIO LOCATIONS_____


CITY           SKY/WX    TMP DP  RH WIND       PRES   REMARKS
OTTAWA         PTSUNNY   68  59  73 S8        30.08S

______KEY______
VSB  - VISIBILITY IN MILES
WCI  - WIND CHILL INDEX
HX   - HEAT INDEX
$$
NNNN



USA.gov is the U.S. government's official web portal to all federal, state and local government web resources and services.